CEB6955 VVTS-RPLL

Flight info

Callsign CEB6955
Flight time N/A
Altitude 37000
Route KADUM2A PTH N500 PANDI/N0470F370 M765 REKEL DCT LUBAN LUBAN3R
Aircraft A339/H-SADE1E2E3GHIJ3J5M1P2RWXY/LB2D1

Departure

Time 2026-05-08 07:23
Airport Tan Son Nhat International Airport (VVTS)

Arrival

Time N/A
Airport Ninoy Aquino International Airport (RPLL)
Time Latitude Longitude Altitude Speed Heading
2026-05-08 06:39 10.81395 106.66116 41 ft 0 kts 95°
2026-05-08 06:58 10.81395 106.66109 41 ft 2 kts 90°
2026-05-08 06:59 10.81394 106.66093 40 ft 2 kts 78°
2026-05-08 06:59 10.81390 106.66079 40 ft 2 kts 69°
2026-05-08 06:59 10.81384 106.66065 40 ft 2 kts 59°
2026-05-08 06:59 10.81376 106.66052 40 ft 2 kts 50°
2026-05-08 07:00 10.81365 106.66042 40 ft 2 kts 40°
2026-05-08 07:00 10.81353 106.66032 40 ft 2 kts 31°
2026-05-08 07:00 10.81340 106.66025 40 ft 2 kts 21°
2026-05-08 07:00 10.81326 106.66020 40 ft 2 kts 11°
2026-05-08 07:01 10.81311 106.66019 41 ft 2 kts
2026-05-08 07:01 10.81296 106.66017 41 ft 2 kts
2026-05-08 07:01 10.81281 106.66016 41 ft 2 kts
2026-05-08 07:01 10.81266 106.66015 41 ft 2 kts
2026-05-08 07:02 10.81251 106.66013 42 ft 2 kts
2026-05-08 07:02 10.81236 106.66012 42 ft 2 kts
2026-05-08 07:02 10.81231 106.66012 42 ft 0 kts
2026-05-08 07:09 10.81240 106.66013 42 ft 4 kts
2026-05-08 07:09 10.81291 106.66017 41 ft 9 kts
2026-05-08 07:10 10.81371 106.66025 39 ft 13 kts
2026-05-08 07:10 10.81470 106.66034 38 ft 15 kts
2026-05-08 07:10 10.81581 106.66044 38 ft 16 kts
2026-05-08 07:10 10.81680 106.66054 37 ft 10 kts
2026-05-08 07:11 10.81758 106.66061 37 ft 11 kts
2026-05-08 07:11 10.81814 106.66067 37 ft 5 kts 11°
2026-05-08 07:11 10.81851 106.66085 37 ft 6 kts 38°
2026-05-08 07:11 10.81881 106.66129 37 ft 7 kts 65°
2026-05-08 07:12 10.81906 106.66187 37 ft 10 kts 69°
2026-05-08 07:12 10.81935 106.66265 37 ft 12 kts 70°
2026-05-08 07:12 10.81971 106.66357 37 ft 15 kts 69°
2026-05-08 07:12 10.82004 106.66447 37 ft 11 kts 69°
2026-05-08 07:13 10.82033 106.66525 37 ft 11 kts 68°
2026-05-08 07:13 10.82058 106.66592 38 ft 8 kts 69°
2026-05-08 07:13 10.82070 106.66623 38 ft 5 kts 69°
2026-05-08 07:13 10.82087 106.66668 38 ft 8 kts 69°
2026-05-08 07:14 10.82107 106.66720 40 ft 7 kts 69°
2026-05-08 07:14 10.82125 106.66767 40 ft 0 kts 69°
2026-05-08 07:15 10.82131 106.66781 40 ft 4 kts 70°
2026-05-08 07:15 10.82145 106.66821 40 ft 7 kts 69°
2026-05-08 07:15 10.82162 106.66866 40 ft 6 kts 69°
2026-05-08 07:16 10.82173 106.66896 41 ft 0 kts 69°
2026-05-08 07:17 10.82178 106.66908 41 ft 3 kts 69°
2026-05-08 07:17 10.82188 106.66936 42 ft 5 kts 69°
2026-05-08 07:17 10.82206 106.66978 43 ft 5 kts 64°
2026-05-08 07:18 10.82226 106.67004 43 ft 5 kts 39°
2026-05-08 07:18 10.82257 106.67007 43 ft 2 kts 343°
2026-05-08 07:20 10.82270 106.67003 43 ft 6 kts 342°
2026-05-08 07:20 10.82319 106.66972 42 ft 7 kts 308°
2026-05-08 07:21 10.82337 106.66912 41 ft 9 kts 281°
2026-05-08 07:21 10.82334 106.66869 41 ft 0 kts 254°
2026-05-08 07:22 10.82264 106.66669 40 ft 64 kts 249°
2026-05-08 07:22 10.82031 106.66048 37 ft 123 kts 250°
2026-05-08 07:23 10.81649 106.65063 45 ft 170 kts 249°
2026-05-08 07:23 10.81135 106.63957 450 ft 177 kts 229°
2026-05-08 07:23 10.80129 106.63352 1097 ft 167 kts 182°
2026-05-08 07:23 10.79066 106.63603 1682 ft 156 kts 137°
2026-05-08 07:24 10.78505 106.64520 2057 ft 163 kts 95°
2026-05-08 07:24 10.78767 106.65675 2359 ft 180 kts 54°
2026-05-08 07:24 10.79664 106.66649 2690 ft 197 kts 48°
2026-05-08 07:24 10.80546 106.67786 3016 ft 214 kts 59°
2026-05-08 07:25 10.81243 106.69203 3349 ft 231 kts 70°
2026-05-08 07:25 10.81745 106.70807 3622 ft 244 kts 76°
2026-05-08 07:25 10.82394 106.74384 4304 ft 267 kts 82°
2026-05-08 07:26 10.82620 106.76241 4885 ft 269 kts 83°
2026-05-08 07:26 10.82817 106.78125 5469 ft 271 kts 83°
2026-05-08 07:26 10.82998 106.80054 6075 ft 273 kts 83°
2026-05-08 07:26 10.83166 106.81960 6691 ft 275 kts 83°
2026-05-08 07:27 10.83333 106.83914 7343 ft 276 kts 83°
2026-05-08 07:27 10.83494 106.85866 8006 ft 277 kts 83°
2026-05-08 07:27 10.83650 106.87794 8695 ft 278 kts 83°
2026-05-08 07:27 10.83809 106.89774 9372 ft 280 kts 83°
2026-05-08 07:28 10.83965 106.91733 9991 ft 283 kts 84°
2026-05-08 07:28 10.84128 106.93766 10384 ft 296 kts 84°
2026-05-08 07:28 10.84301 106.95930 10653 ft 313 kts 84°
2026-05-08 07:28 10.84480 106.98187 10914 ft 329 kts 84°
2026-05-08 07:29 10.84668 107.00573 11177 ft 345 kts 84°
2026-05-08 07:29 10.84861 107.03039 11600 ft 356 kts 85°
2026-05-08 07:29 10.85056 107.05531 12186 ft 360 kts 85°
2026-05-08 07:29 10.85255 107.08073 12748 ft 363 kts 85°
2026-05-08 07:30 10.85455 107.10643 13310 ft 367 kts 85°
2026-05-08 07:30 10.85657 107.13252 13860 ft 371 kts 85°
2026-05-08 07:30 10.85858 107.15855 14427 ft 373 kts 85°
2026-05-08 07:30 10.86064 107.18518 15017 ft 376 kts 85°
2026-05-08 07:31 10.86267 107.21145 15608 ft 378 kts 85°
2026-05-08 07:31 10.86475 107.23846 16164 ft 381 kts 85°
2026-05-08 07:31 10.86683 107.26537 16705 ft 384 kts 85°
2026-05-08 07:31 10.86890 107.29225 17251 ft 386 kts 85°
2026-05-08 07:32 10.87101 107.31957 17808 ft 389 kts 85°
2026-05-08 07:32 10.87312 107.34689 18353 ft 392 kts 85°
2026-05-08 07:32 10.87527 107.37483 18863 ft 395 kts 85°
2026-05-08 07:32 10.87739 107.40246 19359 ft 397 kts 85°
2026-05-08 07:33 10.87958 107.43088 19851 ft 400 kts 86°
2026-05-08 07:33 10.88175 107.45920 20322 ft 403 kts 86°
2026-05-08 07:33 10.88392 107.48756 20776 ft 406 kts 86°
2026-05-08 07:33 10.88613 107.51635 21222 ft 408 kts 86°
2026-05-08 07:34 10.88834 107.54527 21654 ft 411 kts 86°
2026-05-08 07:34 10.89056 107.57433 22086 ft 413 kts 86°
2026-05-08 07:34 10.89279 107.60367 22341 ft 420 kts 86°
2026-05-08 07:34 10.89429 107.62351 22466 ft 426 kts 86°
2026-05-08 07:35 10.89733 107.66361 22905 ft 432 kts 86°
2026-05-08 07:35 10.89964 107.69416 23282 ft 435 kts 86°
2026-05-08 07:35 10.90195 107.72473 23629 ft 438 kts 86°
2026-05-08 07:35 10.90430 107.75580 23977 ft 442 kts 85°
2026-05-08 07:36 10.90666 107.78702 24313 ft 445 kts 85°
2026-05-08 07:36 10.90905 107.81861 24631 ft 449 kts 85°
2026-05-08 07:36 10.91146 107.85065 24952 ft 452 kts 85°
2026-05-08 07:36 10.91387 107.88259 25271 ft 456 kts 85°
2026-05-08 07:37 10.91630 107.91484 25618 ft 458 kts 85°
2026-05-08 07:37 10.91871 107.94714 26330 ft 451 kts 85°
2026-05-08 07:37 10.92103 107.97826 26916 ft 448 kts 85°
2026-05-08 07:37 10.92342 108.01012 27233 ft 451 kts 85°
2026-05-08 07:38 10.92583 108.04224 27497 ft 455 kts 85°
2026-05-08 07:38 10.92846 108.07406 27782 ft 458 kts 83°
2026-05-08 07:38 10.93228 108.10635 28074 ft 461 kts 82°
2026-05-08 07:38 10.93635 108.13905 28360 ft 464 kts 81°
2026-05-08 07:39 10.94046 108.17167 28638 ft 467 kts 81°
2026-05-08 07:39 10.94463 108.20486 28951 ft 470 kts 81°
2026-05-08 07:39 10.94875 108.23776 29296 ft 471 kts 81°
2026-05-08 07:39 10.95289 108.27092 29648 ft 473 kts 81°
2026-05-08 07:40 10.95700 108.30405 29988 ft 474 kts 81°
2026-05-08 07:40 10.96109 108.33697 30315 ft 475 kts 81°
2026-05-08 07:40 10.96528 108.37067 30721 ft 475 kts 81°
2026-05-08 07:40 10.96938 108.40389 31197 ft 473 kts 81°
2026-05-08 07:41 10.97345 108.43677 31691 ft 471 kts 81°
2026-05-08 07:41 10.97752 108.46963 32183 ft 468 kts 81°
2026-05-08 07:41 10.98158 108.50258 32690 ft 465 kts 81°
2026-05-08 07:41 10.98558 108.53503 33213 ft 463 kts 81°
2026-05-08 07:42 10.98955 108.56722 33743 ft 460 kts 81°
2026-05-08 07:42 10.99354 108.59963 34278 ft 458 kts 81°
2026-05-08 07:42 10.99751 108.63182 34783 ft 456 kts 80°
2026-05-08 07:42 11.00147 108.66403 35262 ft 454 kts 81°
2026-05-08 07:43 11.00534 108.69550 35640 ft 453 kts 80°
2026-05-08 07:43 11.00925 108.72738 35957 ft 454 kts 80°
2026-05-08 07:43 11.01323 108.75967 36259 ft 455 kts 81°
2026-05-08 07:43 11.01715 108.79166 36540 ft 456 kts 81°
2026-05-08 07:44 11.02104 108.82343 36796 ft 457 kts 81°
2026-05-08 07:44 11.02889 108.88764 36830 ft 459 kts 81°
2026-05-08 07:45 11.03676 108.95224 36829 ft 458 kts 80°
2026-05-08 07:45 11.04459 109.01650 36832 ft 459 kts 80°
2026-05-08 07:46 11.05239 109.08054 36835 ft 458 kts 80°
2026-05-08 07:46 11.06024 109.14517 36840 ft 459 kts 80°
2026-05-08 07:47 11.06806 109.20983 36848 ft 459 kts 80°
2026-05-08 07:47 11.07591 109.27476 36847 ft 459 kts 80°
2026-05-08 07:48 11.08367 109.33921 36841 ft 459 kts 80°
2026-05-08 07:48 11.09143 109.40373 36840 ft 459 kts 81°
2026-05-08 07:49 11.09917 109.46825 36839 ft 459 kts 80°
2026-05-08 07:49 11.10687 109.53259 36842 ft 459 kts 80°
2026-05-08 07:50 11.11498 109.59713 36844 ft 459 kts 80°
2026-05-08 07:50 11.12332 109.66137 36846 ft 460 kts 80°
2026-05-08 07:51 11.13163 109.72571 36846 ft 460 kts 80°
2026-05-08 07:51 11.13989 109.79009 36843 ft 460 kts 80°
2026-05-08 07:52 11.14818 109.85491 36838 ft 459 kts 80°
2026-05-08 07:52 11.15638 109.91911 36836 ft 460 kts 80°
2026-05-08 07:53 11.16456 109.98332 36834 ft 460 kts 80°
2026-05-08 07:53 11.17279 110.04794 36836 ft 460 kts 80°
2026-05-08 07:54 11.18102 110.11266 36834 ft 461 kts 80°
2026-05-08 07:54 11.18924 110.17748 36835 ft 461 kts 80°
2026-05-08 07:55 11.19739 110.24184 36836 ft 461 kts 80°
2026-05-08 07:55 11.20556 110.30650 36836 ft 461 kts 80°
2026-05-08 07:56 11.21369 110.37105 36836 ft 461 kts 80°
2026-05-08 07:56 11.22183 110.43564 36837 ft 461 kts 80°
2026-05-08 07:57 11.22996 110.50025 36834 ft 462 kts 80°
2026-05-08 07:57 11.23807 110.56488 36833 ft 461 kts 80°
2026-05-08 07:58 11.24620 110.62975 36836 ft 462 kts 80°
2026-05-08 07:58 11.25425 110.69426 36838 ft 461 kts 80°
2026-05-08 07:59 11.26241 110.75953 36839 ft 461 kts 80°
2026-05-08 07:59 11.27046 110.82410 36841 ft 462 kts 81°
2026-05-08 08:00 11.27850 110.88869 36839 ft 462 kts 81°
2026-05-08 08:00 11.28654 110.95357 36840 ft 462 kts 81°
2026-05-08 08:01 11.29456 111.01839 36838 ft 463 kts 81°
2026-05-08 08:01 11.30259 111.08340 36840 ft 462 kts 81°
2026-05-08 08:02 11.31036 111.14837 36848 ft 463 kts 81°
2026-05-08 08:02 11.31757 111.21388 36851 ft 463 kts 81°
2026-05-08 08:03 11.32504 111.27876 36851 ft 463 kts 81°
2026-05-08 08:03 11.33266 111.34402 36850 ft 463 kts 81°
2026-05-08 08:04 11.34012 111.40880 36850 ft 463 kts 81°
2026-05-08 08:04 11.34393 111.44203 36850 ft 463 kts 81°